Tracking 19192 objects as of 22-Jun-2018
HD Live streaming from Space Station
objects crossing your sky now

FENGYUN 1C DEB

Track FENGYUN 1C DEB now!
10-day predictions


NORAD ID: 35225
Int'l Code: 1999-025DQH
Perigee: 796.0 km
Apogee: 881.9 km
Inclination: 103.3 °
Period: 101.5 minutes
Semi major axis: 7209 km
RCS: 0.0074 m2 (small)
Launch date: May 10, 1999
Source: People's Republic of China (PRC)
Launch site: Taiyaun Space Center, China (TSC)

Note: This is SATELLITE DEBRIS
aabbcc
Your satellite tracking list
Your tracking list is empty




NASA's NSSDC Master Catalog

Two Line Element Set (TLE):
1 35225U 99025DQH 18172.30385303 +.00001121 +00000-0 +57703-3 0  9996
2 35225 103.2955 352.7731 0059572 045.7786 314.8242 14.18102511554627
Source of the keplerian elements: AFSPC